Weather Roundup
Issued by NWS

Home | Current Version | Previous Version | Text Only | Print | Product List | Glossary On
Versions: 1 2 3 4 5 6 7 8 9 10 11 12 13 14 15 16 17 18 19 20 21 22 23 24 25 26 27 28 29 30 31 32 33 34 35 36 37 38 39 40 41 42 43 44 45 46 47 48 49 50
000
NZUS93 KARX 270810
HRRWXR

CURRENT HOURLY OBSERVATIONS ACROSS
MUCH OF THE UPPER MISSISSIPPI VALLEY
NATIONAL WEATHER SERVICE LA CROSSE WI
300 AM CDT FRI MAY 27 2016


...SOUTHEAST MINNESOTA...


CITY           SKY/WX    TMP DP  RH WIND       PRES   REMARKS
ROCHESTER      TSTM      63  60  90 CALM      29.88S
ROCHESTER/MAYO CLOUDY    65  59  80 CALM      29.87F
WINONA         CLOUDY    63  61  94 CALM      29.86F
AUSTIN         CLOUDY    63  57  82 CALM      29.85F
ALBERT LEA     CLOUDY    64  55  72 SE9       29.85S
DODGE CENTER   CLOUDY    63  57  82 SE7       29.87S
PRESTON        CLOUDY    61  58  89 N5        29.86F
OWATONNA       CLOUDY    66  54  63 SE10      29.85F
FARIBAULT      CLOUDY    66  57  72 CALM      29.83F
$$

...ELSEWHERE IN MINNESOTA...


CITY           SKY/WX    TMP DP  RH WIND       PRES   REMARKS
MINNEAPOLIS    CLOUDY    69  55  60 SE5       29.83F
INTNL FALLS    CLEAR     49  47  93 CALM      29.81R
DULUTH         CLOUDY    51  48  89 CALM      29.85F
RED WING       CLOUDY    63  61  94 E3        29.84F
REDWOOD FALLS  CLOUDY    64  56  75 CALM      29.77F
MANKATO        CLOUDY    64  57  77 S6        29.81F
WORTHINGTON    MOCLDY    60  57  89 S3        29.82F
FAIRMONT       CLOUDY    63  55  77 CALM      29.82F
$$

...SOUTHWEST WISCONSIN...


CITY           SKY/WX    TMP DP  RH WIND       PRES   REMARKS
LA CROSSE      CLOUDY    66  61  84 CALM      29.84F
PRAIRIE DU CHI CLOUDY    66  61  84 E3        29.86R
BOSCOBEL       MOCLDY    65  63  93 CALM      29.87R
LONE ROCK      CLOUDY    63  60  90 CALM      29.88R
PLATTEVILLE    MOCLDY    67  58  73 E5        29.87R
FORT MC COY    MOCLDY    59  58  99 S5        29.87F
CAMP DOUGLAS   MOCLDY    57  56  94 SE1       29.87S
MAUSTON-NEW LI PTSUNNY   61  60  96 CALM      29.86S
VIROQUA        FAIR      64  61  88 N3        29.87R
WIS DELLS      CLOUDY    61  58  90 CALM      29.88R
$$

...ELSEWHERE IN WISCONSIN...


CITY           SKY/WX    TMP DP  RH WIND       PRES   REMARKS
MILWAUKEE      MOCLDY    67  61  81 CALM      29.88R
MADISON        PTCLDY    61  58  90 CALM      29.86R
GREEN BAY      PTCLDY    60  58  92 CALM      29.87R
EAU CLAIRE     CLOUDY    58  56  93 CALM      29.86F
BLACK RVR FLS  FAIR      58  58 100 CALM      29.85F
MEDFORD        CLOUDY    58  58 100 CALM      29.89R
WAUSAU         CLOUDY    59  57  93 E5        29.88R
WIS RAPIDS     MOCLDY    58  56  93 CALM      29.89F
MARSHFIELD     CLOUDY    61  56  83 CALM      29.88S
RICE LAKE      PTCLDY    58  56  93 CALM      29.89S
$$

...NORTHEAST IOWA...


CITY           SKY/WX    TMP DP  RH WIND       PRES   REMARKS
WATERLOO       CLOUDY    63  60  90 NE6       29.82F
DUBUQUE        CLOUDY    66  61  84 N7        29.86S
DECORAH        DRIZZLE   64  59  82 N7        29.84F
MASON CITY     CLOUDY    61  58  90 CALM      29.87R
CHARLES CITY   CLOUDY    63  61  94 E6        29.85R
OELWEIN        CLOUDY    64  61  88 N3        29.85F
$$

...ELSEWHERE IN IOWA...


CITY           SKY/WX    TMP DP  RH WIND       PRES   REMARKS
DES MOINES     CLOUDY    64  59  83 SE8       29.79R
IOWA CITY      LGT RAIN  64  61  90 E8        29.85F
FORT DODGE     CLOUDY    63  54  72 CALM      29.83R
MARSHALLTOWN   CLOUDY    64  59  83 SE9       29.80F
CEDAR RAPIDS   LGT RAIN  62  62 100 E6        29.84F
$$

...NORTHERN ILLINOIS...


CITY           SKY/WX    TMP DP  RH WIND       PRES   REMARKS
CHICAGO-OHARE  CLOUDY    70  67  90 S10       29.89S
CHICAGO-MIDWAY CLOUDY    71  64  78 S12       29.90S
MOLINE         RAIN      65  60  84 S12G31    29.95R
ROCKFORD       CLOUDY    70  65  84 S10       29.88S
PEORIA         CLOUDY    69  61  75 W8        29.88F
$$

NOTE: "FAIR" INDICATES FEW OR NO CLOUDS BELOW 12,000 FEET WITH NO
SIGNIFICANT WEATHER AND/OR OBSTRUCTIONS TO VISIBILITY. WIND
SPEEDS ARE IN MILES-PER-HOUR.




USA.gov is the U.S. government's official web portal to all federal, state and local government web resources and services.